Read MPEC 2006-B87
Read MPEC 2006-C01
M.P.E.C. 2006-B88 Issued 2006 Jan. 31, 12:01 UT
The Minor Planet Electronic Circulars contain information on unusual
minor planets and routine data on comets. They are published
on behalf of Commission 20 of the International Astronomical Union by the
Minor Planet Center, Smithsonian Astrophysical Observatory,
Cambridge, MA 02138, U.S.A.
Supported in part by the Brinson Foundation
Supported in part by the TABASGO Foundation
Prepared using the Tamkin Foundation Computer Network
MPC@CFA.HARVARD.EDU
URL http://cfa-www.harvard.edu/iau/mpc.html ISSN 1523-6714
2006 BX139
Observations:
K06BD9X* C2006 01 30.47596 12 53 11.04 +05 16 56.5 20.0 V EB088703
K06BD9X C2006 01 30.48196 12 53 12.15 +05 16 57.7 19.9 V EB088703
K06BD9X C2006 01 30.48801 12 53 13.12 +05 16 56.1 20.0 V EB088703
K06BD9X C2006 01 30.49412 12 53 14.24 +05 16 57.7 20.3 V EB088703
K06BD9X C2006 01 30.51784 12 53 18.08 +05 16 56.3 20.0 V EB088703
K06BD9X C2006 01 30.52421 12 53 19.12 +05 16 56.8 19.7 V EB088703
K06BD9X C2006 01 30.53061 12 53 20.23 +05 16 56.2 19.7 V EB088703
K06BD9X C2006 01 31.00348 12 54 44.58 +05 16 58.0 20.2 V EB088198
K06BD9X C2006 01 31.00707 12 54 45.19 +05 16 58.1 20.1 V EB088198
K06BD9X C2006 01 31.01353 12 54 46.26 +05 16 58.3 20.1 V EB088198
K06BD9X C2006 01 31.31259 12 55 38.87 +05 17 09.7 20.0 R EB088854
K06BD9X C2006 01 31.32053 12 55 39.97 +05 17 07.6 20.2 R EB088734
K06BD9X C2006 01 31.32494 12 55 40.68 +05 17 07.6 19.6 R EB088734
K06BD9X C2006 01 31.32935 12 55 41.46 +05 17 07.4 19.9 R EB088734
K06BD9X C2006 01 31.33191 12 55 42.44 +05 17 08.3 20.1 R EB088854
K06BD9X C2006 01 31.35130 12 55 45.48 +05 17 10.4 20.3 R EB088854
Observer details:
198 Wildberg. Observer R. Apitzsch. 0.35-m f/4.2 reflector + CCD.
703 Catalina Sky Survey. Observer R. A. Kowalski. Measurers E. C. Beshore,
E. J. Christensen, G. J. Garradd, A. D. Grauer, R. E. Hill, R. A. Kowalski,
S. M. Larson, R. H. McNaught. 0.68-m Schmidt + CCD.
734 Farpoint Observatory. Observer D. Tibbets. 0.7-m reflector + CCD.
854 Sabino Canyon Observatory, Tucson. Observer J. E. McGaha. 0.36-m f/10.0
Schmidt-Cassegrain + CCD.
Orbital elements:
2006 BX139 Earth MOID = 0.2248 AU
Epoch 2006 Jan. 25.0 TT = JDT 2453760.5 MPC
M 357.42014 (2000.0) P Q
n 0.39668802 Peri. 34.81203 -0.82786714 -0.55403021
a 1.8344392 Node 111.31008 +0.49090160 -0.79123806
e 0.3431076 Incl. 5.39993 +0.27138831 -0.25882978
P 2.48 H 20.2 G 0.15
From 16 observations 2006 Jan. 30-31.
Ephemeris:
2006 BX139 a,e,i = 1.83, 0.34, 5 q = 1.2050
Date TT R. A. (2000) Decl. Delta r Elong. Phase V
2006 01 25 12 36.55 +05 20.8 0.373 1.207 118.2 46.0 20.2
2006 02 04 13 06.06 +05 20.8 0.351 1.205 121.1 44.4 20.0
2006 02 14 13 31.09 +05 48.8 0.336 1.211 124.9 41.9 19.9
2006 02 24 13 50.31 +06 40.3 0.325 1.224 129.9 38.4 19.7
2006 03 06 14 02.61 +07 46.9 0.321 1.243 136.0 33.7 19.6
2006 03 16 14 07.75 +08 53.3 0.323 1.268 143.2 28.1 19.5
2006 03 26 14 06.39 +09 42.8 0.332 1.298 150.7 22.1 19.4
2006 04 05 14 00.25 +09 58.9 0.352 1.332 157.3 16.8 19.5
2006 04 15 13 52.11 +09 31.1 0.383 1.370 160.2 14.3 19.6
2006 04 25 13 44.59 +08 21.0 0.427 1.410 157.7 15.7 20.0
2006 05 05 13 39.60 +06 37.2 0.484 1.453 151.7 19.2 20.4
2006 05 15 13 38.06 +04 31.2 0.555 1.498 144.6 23.0 20.9
2006 05 25 13 39.98 +02 13.9 0.637 1.543 137.4 26.4 21.4
2006 06 04 13 45.04 -00 07.8 0.731 1.589 130.5 29.0 21.8
Timothy B. Spahr (C) Copyright 2006 MPC M.P.E.C. 2006-B88
Read MPEC 2006-B87
Read MPEC 2006-C01
Our Web policy. Index to the CBAT/MPC/ICQ pages.